Карточка аэропорта USSS

Внимание!
Информация на этой странице в стадии наполнения.
Если вы не увидели какой-то информации, или заметили неточность - пожалуйста сообщите нам!
Спасибо!
Команда RU-STAFF
Название аэропортаКольцово
Название аэропорта (англ.)Koltsovo
Превышение766 ft. (233.5 m.)
Координаты56°44.586', 60°48.186'
Высота перехода4000ft
Эшелон переходаQNH>=1013hPa:FL50; QNH 1013hPa-977hPa:FL60; QNH<=977hpa:FL70
Коды ответчика5520-5557
Зона ОрВДЕкатеринбург РПИ (USSV)
Данные METARUSSS 181600Z 28004MPS 6000 -SHRA SCT020CB 11/10 Q1013 R26L/290350 NOSIG RMK QFE739/0986
Проноз погоды (TAF)USSS 181356Z 1815/1915 31003G10MPS 9999 BKN020CB FM181800 08003G10MPS 6000 -SHRA BKN016CB TEMPO 1818/1903 0300 FG VV003 FM190300 14003G12MPS 9999 SCT020
NOTAMshow/hide NOTAM
AWOS   TABLE

Информация о ВПП

ВПП Длина ВПП (м.) Покрытие Курс ВПП Частота ILS
26L3026Бетон259109.5
08R3026Бетон79109.9
26R3004Асфальтобетон255110.5
08L3004Асфальтобетон75111.7

Диспетчерские позиции

Позывной Наименование органа УВД Частота
USSS_ATIS_APPКольцово АТИС127.850
USSV_FSS_CTRКольцово Транзит131.900
USSS_R_APPКольцово-Круг118.7
USSS_APPКольцово-Подход125.9
USSS_GNDКольцово-Руление119.0
USSS_TWRКольцово-Старт124.3
USSSFM1Машина сопровождения119.000



Спутниковое изображение